Lumberton, NC

12:51 PM EST on February 28, 2017 (GMT -0500)
Lumberton Municipal

Weather History for KLBT - April, 2012

Change the Weather History Date:

Wednesday, April 18, 2012

  Actual Average Record
Temperature  
Mean Temperature 72 °F 62 °F  
Max Temperature 82 °F 75 °F 89 °F (2002)
Min Temperature 61 °F 50 °F 32 °F (2001)
Degree Days  
Heating Degree Days 0 5  
Month to date heating degree days 96 111  
Since 1 July heating degree days 2095 2687  
Cooling Degree Days 7 2  
Month to date cooling degree days 35 28  
Year to date cooling degree days 103 41  
Growing Degree Days 20 (Base 50)    
Moisture  
Dew Point 60 °F    
Average Humidity 68    
Maximum Humidity 93    
Minimum Humidity 42    
Precipitation  
Precipitation 0.61 in 0.08 in 0.75 in (2014)
Month to date precipitation 1.87 1.75  
Year to date precipitation 10.61 10.95  
Sea Level Pressure  
Sea Level Pressure 30.05 in    
Wind  
Wind Speed 5 mph (WNW)    
Max Wind Speed 14 mph    
Max Gust Speed 18 mph    
Visibility 6 miles    
Events Rain    
T = Trace of Precipitation, MM = Missing Value Source: NWS Daily Summary

Daily Weather History Graph

Daily Weather History Graph

Search for Another Location

Airport or City:

Trip Planner

Search our weather history database for the weather conditions in past years. The results will help you decide how hot, cold, wet, or windy it might be!

Date:

Astronomy

Apr. 18, 2012 Rise Set
Actual Time 6:40 AM EDT 7:51 PM EDT
Civil Twilight 6:14 AM EDT 8:17 PM EDT
Nautical Twilight 5:43 AM EDT 8:48 PM EDT
Astronomical Twilight 5:10 AM EDT 9:20 PM EDT
Moon 4:59 AM EDT (4/18) 5:44 PM EDT (4/18)
Length of Visible Light 14h 02m
Length of Day
13h 10m
Waning Crescent, 6% of the Moon is Illuminated
Apr 18
Waning Crescent
Apr 21
New
Apr 29
First Quarter
May 5
Full
May 12
Last Quarter

Hourly Weather History & Observations

Time (EDT) Temp. Dew Point Humidity Pressure Visibility Wind Dir Wind Speed Gust Speed Precip Events Conditions
12:54 AM 69.1 °F 57.9 °F 68% 30.09 in 10.0 mi South 3.5 mph - N/A   Partly Cloudy
1:54 AM 66.9 °F 60.1 °F 79% 30.08 in 10.0 mi Calm Calm - N/A   Mostly Cloudy
2:54 AM 66.9 °F 60.1 °F 79% 30.07 in 10.0 mi Calm Calm - N/A   Mostly Cloudy
3:54 AM 64.0 °F 59.0 °F 84% 30.07 in 10.0 mi Calm Calm - N/A   Mostly Cloudy
4:54 AM 64.0 °F 59.0 °F 84% 30.07 in 9.0 mi SSE 4.6 mph - N/A   Mostly Cloudy
5:54 AM 63.0 °F 57.9 °F 84% 30.08 in 9.0 mi SSE 5.8 mph - N/A   Unknown
6:54 AM 62.1 °F 57.9 °F 86% 30.10 in 8.0 mi SE 4.6 mph - N/A   Partly Cloudy
8:54 AM 68.0 °F 60.1 °F 76% 30.12 in 10.0 mi SE 3.5 mph - N/A   Clear
9:54 AM 72.0 °F 61.0 °F 68% 30.11 in 10.0 mi Calm Calm - N/A   Clear
10:54 AM 73.9 °F 61.0 °F 64% 30.11 in 10.0 mi WSW 8.1 mph - N/A   Scattered Clouds
11:54 AM 75.0 °F 61.0 °F 62% 30.10 in 10.0 mi SW 6.9 mph - N/A   Mostly Cloudy
12:54 PM 77.0 °F 59.0 °F 54% 30.07 in 10.0 mi SSW 8.1 mph - N/A   Scattered Clouds
1:54 PM 79.0 °F 55.0 °F 44% 30.05 in 10.0 mi Variable 5.8 mph - N/A   Partly Cloudy
2:54 PM 78.1 °F 54.0 °F 43% 30.03 in 10.0 mi Variable 4.6 mph - N/A   Scattered Clouds
3:54 PM 78.1 °F 55.0 °F 45% 30.00 in 10.0 mi SSE 5.8 mph - N/A   Overcast
4:54 PM 77.0 °F 55.9 °F 48% 29.99 in 10.0 mi SE 8.1 mph - N/A   Mostly Cloudy
5:54 PM 75.9 °F 57.0 °F 52% 29.99 in 10.0 mi SE 5.8 mph - N/A   Overcast
6:40 PM 68.0 °F 60.8 °F 78% 30.01 in 2.0 mi Calm Calm - 0.02 in Rain Light Rain
6:54 PM 66.0 °F 62.1 °F 87% 30.01 in 2.5 mi WNW 9.2 mph - 0.05 in Rain Rain
7:03 PM 66.2 °F 62.6 °F 88% 30.02 in 1.8 mi NW 10.4 mph 18.4 mph 0.10 in Rain Heavy Rain
7:11 PM 64.4 °F 62.6 °F 94% 30.02 in 1.0 mi NW 6.9 mph 16.1 mph 0.24 in Rain Heavy Rain
7:19 PM 64.4 °F 62.6 °F 94% 30.02 in 1.0 mi WSW 5.8 mph - 0.30 in Rain Heavy Rain
7:33 PM 64.4 °F 62.6 °F 94% 30.02 in 1.2 mi WNW 5.8 mph - 0.37 in Rain Heavy Rain
7:38 PM 64.4 °F 62.6 °F 94% 30.03 in 2.0 mi WNW 8.1 mph - 0.38 in Rain Light Rain
7:46 PM 64.4 °F 62.6 °F 94% 30.03 in 4.0 mi WNW 4.6 mph - 0.38 in Rain Light Rain
8:01 PM 64.4 °F 62.6 °F 94% 30.04 in 4.0 mi Variable 6.9 mph - 0.01 in Rain Light Rain
8:27 PM 62.6 °F 62.6 °F 100% 30.05 in 4.0 mi NW 6.9 mph - 0.06 in Rain Light Rain
8:54 PM 62.1 °F 61.0 °F 96% 30.05 in 5.0 mi NNW 5.8 mph - 0.11 in Rain Light Rain
9:18 PM 62.6 °F 60.8 °F 94% 30.06 in 4.0 mi Calm Calm - 0.02 in Rain Light Rain
9:26 PM 62.6 °F 60.8 °F 94% 30.06 in 4.0 mi North 4.6 mph - 0.02 in Rain Light Rain
9:34 PM 62.6 °F 62.6 °F 100% 30.06 in 4.0 mi North 5.8 mph - 0.02 in Rain Light Rain
9:42 PM 62.6 °F 60.8 °F 94% 30.06 in 5.0 mi NNE 4.6 mph - 0.03 in Rain Light Rain
9:54 PM 63.0 °F 61.0 °F 93% 30.06 in 3.0 mi North 3.5 mph - 0.05 in Rain Rain
10:15 PM 62.6 °F 62.6 °F 100% 30.06 in 4.0 mi NW 4.6 mph - 0.01 in Rain Light Rain
10:54 PM 61.0 °F 60.1 °F 97% 30.05 in 4.0 mi North 5.8 mph - 0.01 in   Overcast
11:54 PM 62.1 °F 61.0 °F 96% 30.04 in 3.0 mi North 3.5 mph - 0.01 in Rain Light Rain